Location: Walton
(43.6794°N, 81.3017°W)
Time: 02:03:00
(UTC+00:00)

Cosmos 2180 Rocket - Pass Details

Date: 09 December 2025
Orbit: 954 x 1003 km, 82.9° (Epoch: 12 January)

Event Time Altitude Azimuth Distance (km) Brightness Sun altitude
Exits shadow 10:06:13 52° 347° (NNW) 1,204 4.8 -28.2°
Maximum altitude 10:07:53 85° 264° (W) 996 4.4 -27.9°
Drops below altitude 10° 10:14:13 10° 177° (S) 2,750 7.0 -26.8°
Sets 10:16:44 0° 176° (S) 3,700 7.7 -26.3°
